This is the latest recevied weather packets stored in our database for station/object M0JUI-1. If no packets are shown the sender has not sent any weather packets the latest 10 day(s).
| Time | Temp. | Humidity | Pressure | Rain* | Wind** | Luminosity | Snow |
|---|---|---|---|---|---|---|---|
| 1778163927 | 15° C | 77% | 1015.1 hPa | 0 mm | - | 309 W/m² | - |
| 1778163628 | 15° C | 76% | 1015.2 hPa | 0 mm | - | 306 W/m² | - |
| 1778163327 | 15.56° C | 75% | 1015.2 hPa | 0 mm | - | 299 W/m² | - |
| 1778163028 | 15.56° C | 75% | 1015.4 hPa | 0 mm | - | 311 W/m² | - |
| 1778162727 | 15.56° C | 77% | 1015.3 hPa | 0 mm | - | 324 W/m² | - |
| 1778162430 | 15.56° C | 75% | 1015.3 hPa | 0 mm | - | 391 W/m² | - |
| 1778162127 | 15.56° C | 75% | 1015.4 hPa | 0 mm | - | 391 W/m² | - |
| 1778161829 | 15.56° C | 77% | 1015.4 hPa | 0 mm | - | 396 W/m² | - |
| 1778161527 | 15.56° C | 74% | 1015.6 hPa | 0 mm | - | 377 W/m² | - |
| 1778161227 | 15.56° C | 75% | 1015.6 hPa | 0 mm | - | 427 W/m² | - |
| 1778160927 | 15.56° C | 76% | 1015.5 hPa | 0 mm | - | 468 W/m² | - |
| 1778160627 | 15.56° C | 77% | 1015.3 hPa | 0 mm | - | 431 W/m² | - |
| 1778160315 | 15° C | 79% | 1015.7 hPa | 0 mm | - | 595 W/m² | - |
| 1778160020 | 15° C | 80% | 1015.5 hPa | 0 mm | - | 392 W/m² | - |
| 1778159715 | 15° C | 82% | 1015.7 hPa | 0 mm | - | 396 W/m² | - |
| 1778159416 | 14.44° C | 83% | 1015.4 hPa | 0 mm | - | 399 W/m² | - |
| 1778159116 | 13.89° C | 85% | 1015.7 hPa | 0 mm | - | 376 W/m² | - |
| 1778158809 | 14.44° C | 85% | 1015.7 hPa | 0 mm | - | 362 W/m² | - |
| 1778158504 | 14.44° C | 88% | 1015.7 hPa | 0 mm | - | 346 W/m² | - |
| 1778158209 | 14.44° C | 86% | 1015.7 hPa | 0 mm | - | 367 W/m² | - |
| 1778157891 | 13.89° C | 88% | 1015.7 hPa | 0 mm | - | 370 W/m² | - |
| 1778157592 | 14.44° C | 86% | 1015.8 hPa | 0 mm | - | 342 W/m² | - |
| 1778157291 | 14.44° C | 91% | 1015.7 hPa | 0 mm | - | 350 W/m² | - |
| 1778156979 | 14.44° C | 91% | 1015.7 hPa | 0 mm | - | 351 W/m² | - |
| 1778156679 | 13.33° C | 93% | 1015.7 hPa | 0 mm | - | 361 W/m² | - |
* Rain latest hour (hover to see other rain measurements)
** Current wind speed in m/s (hover to see current wind gust speed)